Location: Newark
(49.4900°N, 20.6656°E)
Time: 02:09:29
(UTC+00:00)

STARLINK-1760 - Pass Details

Date: 24 September 2020
Orbit: 378 x 381 km, 53.0° (Epoch: 29 October)

Event Time Altitude Azimuth Distance (km) Brightness Sun altitude
Exits shadow 01:32:56 18° 59° (ENE) 1,031 5.8 -27.4°
Drops below altitude 10° 01:33:48 11° 66° (ENE) 1,365 6.6 -27.3°
Sets 01:36:00 0° 73° (ENE) 2,258 7.9 -27.0°
